Hobart Regional Airport
KHBR : now visible

Airfield :











YOU CAN JOIN US ON...

 
LOGIN :

Register | Disclaimer

   EN    FR    IT 

 









Legend :    VFR   Marginal VFR   IFR   Intensive IFR   Very Intensive IFR
Visi :
Ceiling :
>= 8 km
>= 3000ft
5 to 8 km
1000 to 3000 ft
1500m to 5 km
500 to 1000 ft
800 to 1500m
200 to 500 ft
< 800m
< 200 ft
Symbols :   Thunderstorms  Fog  Heavy snow  Heavy precipitations  Wind > 20 kt






- Airport Elevation : 1563 ft


KHBR - Hobart Regional

CURRENT METAR :
  • 300953Z AUTO 03015KT 10SM OVC018 M08/M13 A3033 RMK AO2 SLP293 T10831128

EXPIRED METARs :
  • 300853Z AUTO 03013KT 10SM OVC017 M08/M12 A3032 RMK AO2 SLP288 T10831122 51004
  • 300753Z AUTO 02016KT 10SM OVC019 M08/M12 A3031 RMK AO2 SLP285 T10781122

Expired Forecast.
KZFW FIR / North America



MET'MAP, your aeronautical weather chart ! - Copyright ORBIFLY December 2007 - Disclaimer

ORBIFLY MET'MAP TEAM :

Programming & Development : Alexandra Zaïnal
Original concept : Baudouin d'Aumeries
Technical & hardware support : Manuel Goepfert
Assistance : Marc-Olivier Méhu




SOURCES & CREDITS :

   NOAA       Earth
Advisory